Weather History for Siloam Springs, AR

Change the Weather History Date:

Tuesday, June 18, 2013

  Actual Average Record
Temperature  
Mean Temperature 72 °F -  
Max Temperature 82 °F 80 °F 93 °F (2012)
Min Temperature 62 °F 61 °F 53 °F (1999)
Cooling Degree Days 7    
Growing Degree Days 22 (Base 50)    
Moisture  
Dew Point 63 °F    
Average Humidity 73    
Maximum Humidity 94    
Minimum Humidity 48    
Precipitation  
Precipitation 0.00 in - - ()
Sea Level Pressure  
Sea Level Pressure 30.03 in    
Wind  
Wind Speed 4 mph (NE)    
Max Wind Speed 10 mph    
Max Gust Speed -    
Visibility 8 miles    
Events      
Averages and records for this station are not official NWS values.
T = Trace of Precipitation, MM = Missing Value Source: NWS Daily Summary

Daily Weather History Graph

Daily Weather History Graph

Search for Another Location

Airport:

Trip Planner

Search our weather history database for the weather conditions in past years. The results will help you decide how hot, cold, wet, or windy it might be!

Date:

Astronomy

Jun. 18, 2013 Rise Set
Actual Time 6:00 AM CDT 8:37 PM CDT
Civil Twilight 5:30 AM CDT 9:08 PM CDT
Nautical Twilight 4:52 AM CDT 9:46 PM CDT
Astronomical Twilight 4:10 AM CDT 10:28 PM CDT
Moon 3:30 PM CDT (6/18) 2:01 AM CDT (6/18)
Length of Visible Light 15h 38m
Length of Day
14h 37m
Waxing Gibbous, 71% of the Moon is Illuminated
Jun 18
Waxing Gibbous
Jun 23
Full
Jun 29
Last Quarter
Jul 8
New
Jul 15
First Quarter

Hourly Weather History & Observations

Time (CDT) Temp. Heat Index Dew Point Humidity Pressure Visibility Wind Dir Wind Speed Gust Speed Precip Events Conditions
12:35 AM 66.2 °F - 62.6 °F 88% 30.02 in 3.0 mi Calm Calm - N/A   Partly Cloudy
12:55 AM 64.4 °F - 62.6 °F 94% 30.03 in 3.0 mi NNW 4.6 mph - N/A   Partly Cloudy
1:15 AM 64.4 °F - 62.6 °F 94% 30.03 in 6.0 mi NW 5.8 mph - N/A   Partly Cloudy
1:35 AM 66.2 °F - 62.6 °F 88% 30.02 in 10.0 mi NNW 4.6 mph - N/A   Clear
1:55 AM 64.4 °F - 62.6 °F 94% 30.01 in 9.0 mi North 4.6 mph - N/A   Clear
2:15 AM 64.4 °F - 62.6 °F 94% 30.00 in 9.0 mi Calm Calm - N/A   Clear
2:35 AM 64.4 °F - 60.8 °F 88% 30.00 in 5.0 mi North 6.9 mph - N/A   Clear
2:55 AM 64.4 °F - 62.6 °F 94% 29.99 in 5.0 mi NNW 3.5 mph - N/A   Clear
3:15 AM 62.6 °F - 60.8 °F 94% 29.99 in 4.0 mi North 5.8 mph - N/A   Clear
3:35 AM 64.4 °F - 60.8 °F 88% 29.99 in 5.0 mi North 6.9 mph - N/A   Clear
3:55 AM 64.4 °F - 60.8 °F 88% 29.98 in 6.0 mi North 4.6 mph - N/A   Clear
4:16 AM 62.6 °F - 60.8 °F 94% 29.99 in 3.0 mi North 4.6 mph - N/A   Clear
4:35 AM 64.4 °F - 60.8 °F 88% 29.99 in 5.0 mi North 5.8 mph - N/A   Clear
4:55 AM 64.4 °F - 60.8 °F 88% 30.00 in 5.0 mi North 3.5 mph - N/A   Clear
5:15 AM 64.4 °F - 60.8 °F 88% 30.01 in 5.0 mi North 3.5 mph - N/A   Clear
5:35 AM 62.6 °F - 59.0 °F 88% 30.01 in 5.0 mi North 3.5 mph - N/A   Clear
6:35 AM 66.2 °F - 62.6 °F 88% 30.02 in 0.5 mi NNE 6.9 mph - N/A   Overcast
6:55 AM 66.2 °F - 64.4 °F 94% 30.02 in 2.5 mi NE 5.8 mph - N/A   Overcast
7:15 AM 66.2 °F - 64.4 °F 94% 30.02 in 3.0 mi NNE 5.8 mph - N/A   Overcast
7:35 AM 66.2 °F - 64.4 °F 94% 30.03 in 3.0 mi NE 3.5 mph - N/A   Overcast
7:55 AM 66.2 °F - 64.4 °F 94% 30.04 in 3.0 mi NE 4.6 mph - N/A   Overcast
8:15 AM 68.0 °F - 64.4 °F 88% 30.05 in 4.0 mi NE 4.6 mph - N/A   Overcast
8:35 AM 68.0 °F - 64.4 °F 88% 30.05 in 5.0 mi NNE 3.5 mph - N/A   Overcast
8:55 AM 69.8 °F - 66.2 °F 88% 30.06 in 8.0 mi North 3.5 mph - N/A   Overcast
8:56 AM 69.8 °F - 66.2 °F 88% 30.06 in 8.0 mi NNE 3.5 mph - N/A   Overcast
9:15 AM 69.8 °F - 66.2 °F 88% 30.06 in 10.0 mi North 3.5 mph - N/A   Mostly Cloudy
9:55 AM 73.4 °F - 66.2 °F 78% 30.07 in 10.0 mi NE 5.8 mph - N/A   Clear
10:15 AM 73.4 °F - 66.2 °F 78% 30.07 in 10.0 mi East 3.5 mph - N/A   Clear
10:35 AM 75.2 °F - 66.2 °F 73% 30.07 in 10.0 mi ENE 4.6 mph - N/A   Clear
10:55 AM 75.2 °F - 66.2 °F 73% 30.07 in 10.0 mi ESE 4.6 mph - N/A   Clear
11:15 AM 77.0 °F - 64.4 °F 65% 30.07 in 10.0 mi ESE 3.5 mph - N/A   Clear
11:35 AM 77.0 °F - 64.4 °F 65% 30.07 in 10.0 mi East 4.6 mph - N/A   Clear
12:15 PM 78.8 °F - 64.4 °F 61% 30.07 in 10.0 mi ESE 4.6 mph - N/A   Clear
12:35 PM 78.8 °F - 64.4 °F 61% 30.07 in 10.0 mi NNE 5.8 mph - N/A   Clear
12:55 PM 80.6 °F 82.3 °F 64.4 °F 58% 30.07 in 10.0 mi East 6.9 mph - N/A   Clear
1:15 PM 80.6 °F 82.3 °F 64.4 °F 58% 30.07 in 10.0 mi NE 6.9 mph - N/A   Clear
1:35 PM 80.6 °F 82.3 °F 64.4 °F 58% 30.06 in 10.0 mi Calm Calm - N/A   Clear
1:55 PM 80.6 °F 82.3 °F 64.4 °F 58% 30.06 in 10.0 mi NE 3.5 mph - N/A   Clear
2:15 PM 80.6 °F 82.3 °F 64.4 °F 58% 30.05 in 10.0 mi East 6.9 mph - N/A   Clear
2:36 PM 80.6 °F 81.8 °F 62.6 °F 54% 30.04 in 10.0 mi NE 6.9 mph - N/A   Clear
2:55 PM 80.6 °F 82.3 °F 64.4 °F 58% 30.04 in 10.0 mi ENE 3.5 mph - N/A   Clear
3:35 PM 82.4 °F 83.4 °F 62.6 °F 51% 30.03 in 10.0 mi East 4.6 mph - N/A   Clear
3:55 PM 82.4 °F 83.4 °F 62.6 °F 51% 30.02 in 10.0 mi East 4.6 mph - N/A   Clear
4:15 PM 82.4 °F 83.4 °F 62.6 °F 51% 30.02 in 10.0 mi East 9.2 mph - N/A   Clear
4:35 PM 82.4 °F 83.4 °F 62.6 °F 51% 30.01 in 10.0 mi SE 10.4 mph - N/A   Clear
4:55 PM 82.4 °F 82.9 °F 60.8 °F 48% 30.01 in 10.0 mi East 6.9 mph - N/A   Clear
5:15 PM 82.4 °F 82.9 °F 60.8 °F 48% 30.00 in 10.0 mi ESE 6.9 mph - N/A   Clear
5:35 PM 82.4 °F 83.4 °F 62.6 °F 51% 30.00 in 10.0 mi SE 5.8 mph - N/A   Clear
5:55 PM 82.4 °F 83.4 °F 62.6 °F 51% 30.00 in 10.0 mi East 3.5 mph - N/A   Clear
6:16 PM 82.4 °F 82.9 °F 60.8 °F 48% 29.99 in 10.0 mi East 6.9 mph - N/A   Clear
6:35 PM 82.4 °F 82.9 °F 60.8 °F 48% 30.00 in 10.0 mi East 3.5 mph - N/A   Clear
6:55 PM 82.4 °F 83.4 °F 62.6 °F 51% 30.00 in 10.0 mi East 3.5 mph - N/A   Clear
7:15 PM 80.6 °F 81.8 °F 62.6 °F 54% 30.01 in 10.0 mi East 3.5 mph - N/A   Clear
7:55 PM 80.6 °F 81.8 °F 62.6 °F 54% 30.02 in 10.0 mi Calm Calm - N/A   Clear
8:15 PM 78.8 °F - 62.6 °F 57% 30.02 in 10.0 mi Calm Calm - N/A   Clear
8:36 PM 77.0 °F - 62.6 °F 61% 30.02 in 10.0 mi NE 3.5 mph - N/A   Clear
8:55 PM 75.2 °F - 62.6 °F 65% 30.03 in 10.0 mi Calm Calm - N/A   Clear
9:15 PM 73.4 °F - 62.6 °F 69% 30.04 in 10.0 mi Calm Calm - N/A   Clear
9:35 PM 73.4 °F - 62.6 °F 69% 30.04 in 10.0 mi East 4.6 mph - N/A   Clear
9:55 PM 73.4 °F - 60.8 °F 65% 30.04 in 10.0 mi East 3.5 mph - N/A   Clear
10:15 PM 71.6 °F - 60.8 °F 69% 30.04 in 10.0 mi ESE 4.6 mph - N/A   Clear
10:35 PM 69.8 °F - 60.8 °F 73% 30.03 in 10.0 mi SE 4.6 mph - N/A   Clear
10:55 PM 68.0 °F - 60.8 °F 78% 30.04 in 10.0 mi Calm Calm - N/A   Clear
11:35 PM 68.0 °F - 60.8 °F 78% 30.04 in 10.0 mi Calm Calm - N/A   Clear